This demonstration page uses our WeatherBlox Daily Observations layout. Learn more.

Left ArrowRight Arrow

Hourly Observations for May 3, 2020

Temp ( °F °C ) Dew Point ( °F °C ) Humidity (%) Winds ( mph kmh ) Pressure ( in mb ) Visibility ( mi km ) Precip ( " mm )
12:52 am 00:52 Mostly Clear 54 12.2 44 6.7 69 69 N 3 6 30.01 1016 10 16 0.00 0.00
1:52 am 01:52 Partly Cloudy 53 11.7 45 7.2 74 74 Calm 30.00 1016 10 16 0.00 0.00
2:52 am 02:52 Mostly Cloudy 54 12.2 47 8.3 77 77 N 3 6 30.00 1016 10 16 0.00 0.00
3:52 am 03:52 Cloudy 53 11.7 47 8.3 80 80 N 7 11 30.00 1016 10 16 0.00 0.00
4:52 am 04:52 Cloudy 54 12.2 47 8.3 77 77 N 7 11 30.00 1016 10 16 0.00 0.00
5:52 am 05:52 Cloudy with Light Rain 54 12.2 48 8.9 80 80 NNW 8 13 30.02 1017 10 16 0.00 0.00
6:52 am 06:52 Cloudy with Light Rain 54 12.2 50 10 87 87 N 7 11 30.04 1017 10 16 0.01 0.25
7:52 am 07:52 Cloudy with Light Rain 55 12.8 52 11.1 90 90 Calm 30.05 1018 10 16 0.02 0.51
8:52 am 08:52 Mostly Cloudy 59 15 53 11.7 81 81 N 8 13 30.04 1017 10 16 0.00 0.00
9:52 am 09:52 Mostly Cloudy 63 17.2 54 12.2 73 73 N 7 11 30.04 1017 10 16 0.00 0.00
10:52 am 10:52 Mostly Cloudy 68 20 47 8.3 47 47 NE 3 6 30.02 1017 10 16 0.00 0.00
11:52 am 11:52 Mostly Cloudy 70 21.1 46 7.8 42 42 WSW 3 6 30.02 1017 10 16 0.00 0.00
12:52 pm 12:52 Mostly Cloudy 72 22.2 42 5.6 34 34 Calm 30.01 1016 10 16 0.00 0.00
1:52 pm 13:52 Mostly Cloudy 75 23.9 40 4.4 28 28 undefined N/A 29.99 1016 10 16 0.00 0.00
2:52 pm 14:52 Partly Cloudy 75 23.9 40 4.4 28 28 SSE 7 11 29.98 1015 10 16 0.00 0.00
3:52 pm 15:52 Partly Cloudy 75 23.9 38 3.3 26 26 S 3 6 29.97 1015 10 16 0.00 0.00
4:52 pm 16:52 Partly Cloudy 77 25 39 3.9 26 26 VRB 3 6 29.95 1014 10 16 0.00 0.00
5:52 pm 17:52 Mostly Cloudy 76 24.4 36 2.2 23 23 Calm 29.94 1014 10 16 0.00 0.00
6:52 pm 18:52 Partly Cloudy 75 23.9 38 3.3 26 26 SSE 6 9 29.93 1014 10 16 0.00 0.00
7:52 pm 19:52 Mostly Cloudy 74 23.3 37 2.8 26 26 S 6 9 29.94 1014 10 16 0.00 0.00
8:52 pm 20:52 Mostly Cloudy 70 21.1 39 3.9 32 32 Calm 29.95 1014 10 16 0.00 0.00
9:52 pm 21:52 Partly Cloudy 65 18.3 42 5.6 43 43 Calm 29.97 1015 10 16 0.00 0.00
10:52 pm 22:52 Partly Cloudy 61 16.1 45 7.2 56 56 SSE 6 9 29.97 1015 10 16 0.00 0.00
11:52 pm 23:52 Partly Cloudy 62 16.7 45 7.2 54 54 ESE 5 7 29.97 1015 10 16 0.00 0.00

Powered by AerisWeather